This demonstration page uses our WeatherBlox Daily Observations layout. Learn more.

Left ArrowRight Arrow

38.20091, -84.87328

Hourly Observations for July 22, 2017

Temp ( °F °C ) Dew Point ( °F °C ) Humidity (%) Winds ( mph kmh ) Pressure ( in mb ) Visibility ( mi km ) Precip ( " mm )
12:53 am 00:53 Clear 80 26.7 72 22.2 76 76 SW 6 9 29.94 1014 9 14 0.00 0.00
1:53 am 01:53 Clear 79 26.1 72 22.2 79 79 SSW 6 9 29.92 1013 9 14 0.00 0.00
2:53 am 02:53 Clear 80 26.7 72 22.2 76 76 SSW 7 11 29.89 1012 9 14 0.00 0.00
3:53 am 03:53 Clear 79 26.1 72 22.2 79 79 SW 7 11 29.89 1012 8 13 0.00 0.00
4:53 am 04:53 Clear 77 25 72 22.2 85 85 SW 6 9 29.90 1012 7 11 0.00 0.00
5:53 am 05:53 Clear 78 25.6 72 22.2 82 82 WSW 5 7 29.90 1012 7 11 0.00 0.00
6:53 am 06:53 Hazy 77 25 72 22.2 85 85 SW 5 7 29.90 1013 5 8 0.00 0.00
7:53 am 07:53 Hazy 79 26.1 73 22.8 82 82 SW 6 9 29.91 1013 6 10 0.00 0.00
8:53 am 08:53 Hazy 81 27.2 74 23.3 79 79 SW 8 13 29.92 1013 6 10 0.00 0.00
9:53 am 09:53 Sunny 86 30 75 23.9 70 70 WSW 7 11 29.92 1013 8 13 0.00 0.00
10:53 am 10:53 Sunny 88 31.1 74 23.3 63 63 SW 12 19 29.93 1014 9 14 0.00 0.00
11:53 am 11:53 Sunny 90 32.2 74 23.3 59 59 WSW 13 20 29.92 1013 9 14 0.00 0.00
12:53 pm 12:53 Partly Cloudy 91 32.8 74 23.3 57 57 WSW 12 19 29.91 1013 10 16 0.00 0.00
1:53 pm 13:53 Mostly Cloudy 91 32.8 76 24.4 61 61 SW 12 19 29.88 1012 9 14 0.00 0.03
2:09 pm 14:09 Mostly Cloudy with Thunderstorms 90 32.2 75 23.9 62 62 WSW 13 20 29.85 1011 9 14 0.00 0.00
2:24 pm 14:24 Mostly Cloudy with Nearby Thunderstorms 90 32.2 75 23.9 62 62 WSW 15 24 29.85 1011 9 14 0.00 0.00
2:37 pm 14:37 Partly Cloudy 90 32.2 75 23.9 62 62 SW 16 26 29.83 1010 9 14 0.00 0.00
2:53 pm 14:53 Mostly Sunny 89 31.7 74 23.3 61 61 SW 18 30 29.84 1011 9 14 0.00 0.00
3:53 pm 15:53 Sunny 91 32.8 74 23.3 57 57 SSW 15 24 29.79 1009 9 14 0.00 0.00
4:53 pm 16:53 Sunny 92 33.3 74 23.3 56 56 SW 14 22 29.80 1009 10 16 0.00 0.00
5:53 pm 17:53 Sunny 91 32.8 74 23.3 57 57 WSW 8 13 29.80 1009 9 14 0.00 0.00
6:53 pm 18:53 Sunny 91 32.8 73 22.8 56 56 W 8 13 29.80 1009 9 14 0.00 0.00
7:53 pm 19:53 Sunny 89 31.7 74 23.3 61 61 SSW 6 9 29.81 1009 8 13 0.00 0.00
8:53 pm 20:53 Sunny 87 30.6 74 23.3 65 65 SW 7 11 29.82 1010 8 13 0.00 0.00
9:53 pm 21:53 Clear 85 29.4 74 23.3 70 70 SW 8 13 29.82 1010 9 14 0.00 0.00
10:53 pm 22:53 Clear 85 29.4 73 22.8 68 68 SW 8 13 29.82 1010 10 16 0.00 0.00
11:53 pm 23:53 Clear 85 29.4 73 22.8 68 68 SW 8 13 29.82 1010 10 16 0.00 0.00

Powered by AerisWeather